This demonstration page uses our WeatherBlox Daily Observations layout. Learn more.

Left ArrowRight Arrow

53.62937, 11.41316

Hourly Observations for October 21, 2019

Temp ( °F °C ) Dew Point ( °F °C ) Humidity (%) Winds ( mph kmh ) Pressure ( in mb ) Visibility ( mi km ) Precip ( " mm )
6:50 am 06:50 Mostly Cloudy 52 11 52 11 100 100 ENE 10 17 29.94 1014 30 48 N/A
7:20 am 07:20 Mostly Cloudy 52 11 52 11 100 100 ENE 10 17 29.94 1014 30 48 N/A
7:50 am 07:50 Mostly Cloudy 52 11 50 10 94 94 ENE 10 17 29.94 1014 30 48 N/A
8:20 am 08:20 Mostly Cloudy 52 11 52 11 100 100 E 7 11 29.97 1015 30 48 N/A
8:50 am 08:50 Mostly Cloudy 54 12 52 11 94 94 E 7 11 29.97 1015 30 48 N/A
9:20 am 09:20 Mostly Cloudy 54 12 52 11 94 94 ESE 5 7 30.00 1016 30 48 N/A
9:50 am 09:50 Mostly Cloudy 54 12 52 11 94 94 E 7 11 30.00 1016 30 48 N/A
10:20 am 10:20 Mostly Cloudy 54 12 52 11 94 94 ESE 3 6 30.03 1017 4 7 N/A
10:50 am 10:50 Mostly Cloudy with Light Rain 54 12 52 11 94 94 ESE 3 6 30.03 1017 3 5 N/A
11:20 am 11:20 Mostly Cloudy with Light Rain 54 12 52 11 94 94 ENE 10 17 29.97 1015 1 2 N/A
11:50 am 11:50 Mostly Cloudy with Light Rain 54 12 54 12 100 100 ESE 3 6 30.00 1016 3 5 N/A
12:20 pm 12:20 Mostly Cloudy with Mist and Fog 55 13 54 12 94 94 ESE 5 7 30.03 1017 2 4 N/A
12:50 pm 12:50 Mostly Cloudy with Mist and Fog 55 13 54 12 94 94 SSE 6 9 30.03 1017 2 4 N/A
1:20 pm 13:20 Mostly Cloudy with Mist and Fog 55 13 55 13 100 100 SSE 6 9 30.03 1017 3 5 N/A
1:50 pm 13:50 Mostly Cloudy with Mist and Fog 55 13 55 13 100 100 S 5 7 30.03 1017 3 5 N/A
2:20 pm 14:20 Mostly Cloudy 57 14 55 13 94 94 S 3 6 30.03 1017 4 7 N/A
2:50 pm 14:50 Mostly Cloudy with Mist and Fog 57 14 55 13 94 94 SSE 3 6 30.03 1017 3 5 N/A
3:20 pm 15:20 Mostly Cloudy 57 14 55 13 94 94 S 3 6 30.03 1017 4 6 N/A
3:50 pm 15:50 Mostly Cloudy 57 14 55 13 94 94 VRB 3 6 30.03 1017 30 48 N/A
4:20 pm 16:20 Mostly Cloudy 59 15 55 13 88 88 VRB 2 4 30.03 1017 6 9 N/A
4:50 pm 16:50 Mostly Cloudy 59 15 55 13 88 88 S 3 6 30.03 1017 30 48 N/A
5:20 pm 17:20 Partly Cloudy 59 15 57 14 94 94 VRB 2 4 30.03 1017 30 48 N/A
5:50 pm 17:50 Partly Cloudy 59 15 55 13 88 88 S 3 6 30.06 1018 30 48 N/A
6:20 pm 18:20 Mostly Clear 57 14 55 13 94 94 VRB 2 4 30.06 1018 7 11 N/A
6:50 pm 18:50 Mostly Clear 57 14 55 13 94 94 S 3 6 30.06 1018 7 11 N/A
7:20 pm 19:20 Mostly Clear 57 14 55 13 94 94 VRB 1 2 30.09 1019 4 6 N/A
7:50 pm 19:50 Mostly Clear with Fog 55 13 55 13 100 100 VRB 2 4 30.09 1019 0 0 N/A
8:20 pm 20:20 Mostly Clear with Fog 54 12 54 12 100 100 SSE 2 4 30.09 1019 0 0 N/A
8:50 pm 20:50 Mostly Cloudy with Fog 52 11 52 11 100 100 VRB 2 4 30.09 1019 0 0 N/A

Powered by AerisWeather